Time,TemperatureF,DewpointF,PressureIn,WindDirection,WindDirectionDegrees,WindSpeedMPH,WindSpeedGustMPH,Humidity,HourlyPrecipIn,Conditions,Clouds,dailyrainin,SoftwareType,DateUTC
2013-06-05 00:02:00,55.0,53.0,30.08,East,86,3.0,8.0,94,0.00,,,0.25,,2013-06-05 05:02:00,
2013-06-05 00:12:00,55.0,53.0,30.08,East,86,3.0,8.0,94,0.00,,,0.25,,2013-06-05 05:12:00,
2013-06-05 00:22:00,55.0,53.0,30.08,ENE,62,4.0,10.0,94,0.00,,,0.25,,2013-06-05 05:22:00,
2013-06-05 00:32:00,55.0,53.0,30.07,East,101,4.0,8.0,94,0.00,,,0.25,,2013-06-05 05:32:00,
2013-06-05 00:42:00,55.0,53.0,30.07,East,101,4.0,8.0,94,0.00,,,0.25,,2013-06-05 05:42:00,
2013-06-05 00:52:00,55.0,53.0,30.07,ESE,104,3.0,9.0,93,0.00,,,0.25,,2013-06-05 05:52:00,
2013-06-05 01:02:00,55.0,53.0,30.06,East,82,2.0,9.0,92,0.00,,,0.25,,2013-06-05 06:02:00,
2013-06-05 01:12:00,55.0,53.0,30.06,East,82,2.0,9.0,92,0.00,,,0.25,,2013-06-05 06:12:00,
2013-06-05 01:22:00,56.0,54.0,30.07,SE,133,2.0,7.0,92,0.00,,,0.25,,2013-06-05 06:22:00,
2013-06-05 01:32:00,56.0,53.0,30.08,SE,124,0.0,5.0,91,0.00,,,0.25,,2013-06-05 06:32:00,
2013-06-05 01:42:00,56.0,53.0,30.08,SE,124,0.0,5.0,91,0.00,,,0.25,,2013-06-05 06:42:00,
2013-06-05 01:52:00,56.0,53.0,30.08,South,178,0.0,4.0,91,0.00,,,0.25,,2013-06-05 06:52:00,
2013-06-05 02:02:00,56.0,54.0,30.09,South,177,1.0,2.0,92,0.00,,,0.25,,2013-06-05 07:02:00,
2013-06-05 02:12:00,56.0,54.0,30.09,South,177,1.0,2.0,92,0.00,,,0.25,,2013-06-05 07:12:00,
2013-06-05 02:22:00,56.0,54.0,30.08,South,177,0.0,2.0,92,0.00,,,0.25,,2013-06-05 07:22:00,
2013-06-05 02:32:00,56.0,54.0,30.08,South,178,0.0,4.0,92,0.00,,,0.25,,2013-06-05 07:32:00,
2013-06-05 02:42:00,56.0,54.0,30.08,South,178,0.0,4.0,92,0.00,,,0.25,,2013-06-05 07:42:00,
2013-06-05 02:52:00,56.0,54.0,30.08,South,178,0.0,4.0,92,0.00,,,0.25,,2013-06-05 07:52:00,
2013-06-05 03:02:00,56.0,54.0,30.08,South,178,0.0,1.0,92,0.00,,,0.25,,2013-06-05 08:02:00,
2013-06-05 03:12:00,56.0,54.0,30.08,South,178,0.0,1.0,92,0.00,,,0.25,,2013-06-05 08:12:00,
2013-06-05 03:22:00,56.0,54.0,30.08,South,177,0.0,0.0,93,0.00,,,0.25,,2013-06-05 08:22:00,
2013-06-05 03:32:00,55.0,53.0,30.08,South,178,0.0,0.0,94,0.00,,,0.25,,2013-06-05 08:32:00,
2013-06-05 03:42:00,55.0,53.0,30.08,South,178,0.0,0.0,94,0.00,,,0.25,,2013-06-05 08:42:00,
2013-06-05 03:52:00,55.0,53.0,30.06,South,178,0.0,0.0,94,0.00,,,0.25,,2013-06-05 08:52:00,
2013-06-05 04:02:00,55.0,54.0,30.06,South,178,0.0,0.0,95,0.00,,,0.25,,2013-06-05 09:02:00,
2013-06-05 04:12:00,55.0,54.0,30.06,South,178,0.0,0.0,95,0.00,,,0.25,,2013-06-05 09:12:00,
2013-06-05 04:22:00,55.0,54.0,30.06,South,177,0.0,2.0,95,0.00,,,0.25,,2013-06-05 09:22:00,
2013-06-05 04:32:00,55.0,54.0,30.06,South,177,0.0,0.0,95,0.00,,,0.25,,2013-06-05 09:32:00,
2013-06-05 04:42:00,55.0,54.0,30.06,South,177,0.0,0.0,95,0.00,,,0.25,,2013-06-05 09:42:00,
2013-06-05 04:53:00,55.0,54.0,30.06,South,177,0.0,0.0,95,0.00,,,0.25,,2013-06-05 09:53:00,
2013-06-05 05:03:00,55.0,54.0,30.07,South,177,0.0,4.0,95,0.00,,,0.24,,2013-06-05 10:03:00,
2013-06-05 05:12:00,55.0,54.0,30.07,South,177,0.0,4.0,95,0.00,,,0.24,,2013-06-05 10:12:00,
2013-06-05 05:22:00,55.0,54.0,30.07,South,177,0.0,1.0,95,0.00,,,0.24,,2013-06-05 10:22:00,
2013-06-05 05:33:00,55.0,54.0,30.07,South,177,0.0,3.0,95,0.00,,,0.24,,2013-06-05 10:33:00,
2013-06-05 05:42:00,55.0,54.0,30.07,South,177,0.0,3.0,95,0.00,,,0.24,,2013-06-05 10:42:00,
2013-06-05 05:53:00,55.0,54.0,30.05,South,177,0.0,3.0,95,0.00,,,0.24,,2013-06-05 10:53:00,
2013-06-05 06:02:00,55.0,54.0,30.05,South,177,0.0,2.0,95,0.00,,,0.24,,2013-06-05 11:02:00,
2013-06-05 06:12:00,55.0,54.0,30.05,South,177,0.0,2.0,95,0.00,,,0.24,,2013-06-05 11:12:00,
2013-06-05 06:22:00,55.0,54.0,30.04,South,177,0.0,2.0,96,0.00,,,0.24,,2013-06-05 11:22:00,
2013-06-05 06:32:00,55.0,54.0,30.04,South,177,1.0,4.0,96,0.00,,,0.24,,2013-06-05 11:32:00,
2013-06-05 06:42:00,55.0,54.0,30.04,South,177,1.0,4.0,96,0.00,,,0.24,,2013-06-05 11:42:00,
2013-06-05 06:52:00,55.0,54.0,30.03,South,177,1.0,3.0,97,0.00,,,0.24,,2013-06-05 11:52:00,
2013-06-05 07:02:00,55.0,54.0,30.04,South,177,0.0,2.0,97,0.00,,,0.24,,2013-06-05 12:02:00,
2013-06-05 07:12:00,55.0,54.0,30.04,South,177,0.0,2.0,97,0.00,,,0.24,,2013-06-05 12:12:00,
2013-06-05 07:22:00,56.0,55.0,30.03,South,178,0.0,2.0,97,0.00,,,0.24,,2013-06-05 12:22:00,
2013-06-05 07:32:00,56.0,55.0,30.03,SW,224,0.0,2.0,97,0.00,,,0.24,,2013-06-05 12:32:00,
2013-06-05 07:44:00,56.0,55.0,30.03,SW,224,0.0,2.0,97,0.00,,,0.24,,2013-06-05 12:44:00,
2013-06-05 07:52:00,57.0,56.0,30.04,WSW,240,0.0,3.0,97,0.00,,,0.24,,2013-06-05 12:52:00,
2013-06-05 08:02:00,58.0,56.0,30.04,West,281,0.0,2.0,94,0.00,,,0.24,,2013-06-05 13:02:00,
2013-06-05 08:12:00,58.0,56.0,30.04,West,281,0.0,2.0,94,0.00,,,0.24,,2013-06-05 13:12:00,
2013-06-05 08:22:00,59.0,57.0,30.04,West,281,1.0,4.0,93,0.00,,,0.24,,2013-06-05 13:22:00,
2013-06-05 08:32:00,59.0,56.0,30.04,West,281,0.0,3.0,91,0.00,,,0.24,,2013-06-05 13:32:00,
2013-06-05 08:42:00,59.0,56.0,30.04,West,281,0.0,3.0,91,0.00,,,0.24,,2013-06-05 13:42:00,
2013-06-05 08:52:00,59.0,56.0,30.04,WNW,283,1.0,3.0,91,0.00,,,0.24,,2013-06-05 13:52:00,
2013-06-05 09:02:00,59.0,55.0,30.03,West,271,2.0,6.0,86,0.00,,,0.24,,2013-06-05 14:02:00,
2013-06-05 09:12:00,59.0,55.0,30.03,West,271,2.0,6.0,86,0.00,,,0.24,,2013-06-05 14:12:00,
2013-06-05 09:22:00,61.0,56.0,30.03,WSW,257,1.0,4.0,83,0.00,,,0.24,,2013-06-05 14:22:00,
2013-06-05 09:32:00,62.0,56.0,30.03,West,268,1.0,5.0,82,0.00,,,0.24,,2013-06-05 14:32:00,
2013-06-05 09:42:00,62.0,56.0,30.03,West,268,1.0,5.0,82,0.00,,,0.24,,2013-06-05 14:42:00,
2013-06-05 09:52:00,62.0,55.0,30.04,West,271,1.0,4.0,79,0.00,,,0.22,,2013-06-05 14:52:00,
2013-06-05 10:02:00,62.0,56.0,30.05,West,277,2.0,6.0,80,0.00,,,0.22,,2013-06-05 15:02:00,
2013-06-05 10:12:00,62.0,56.0,30.05,West,277,2.0,6.0,80,0.00,,,0.22,,2013-06-05 15:12:00,
2013-06-05 10:22:00,62.0,55.0,30.05,West,275,2.0,5.0,77,0.00,,,0.22,,2013-06-05 15:22:00,
2013-06-05 10:33:00,62.0,55.0,30.05,West,271,2.0,5.0,79,0.00,,,0.22,,2013-06-05 15:33:00,
2013-06-05 10:42:00,62.0,55.0,30.05,West,271,2.0,5.0,79,0.00,,,0.22,,2013-06-05 15:42:00,
2013-06-05 10:53:00,62.0,55.0,30.05,West,267,2.0,4.0,77,0.00,,,0.22,,2013-06-05 15:53:00,
2013-06-05 11:03:00,63.0,55.0,30.05,West,271,3.0,5.0,75,0.00,,,0.22,,2013-06-05 16:03:00,
2013-06-05 11:12:00,63.0,55.0,30.05,West,271,3.0,5.0,75,0.00,,,0.22,,2013-06-05 16:12:00,
2013-06-05 11:22:00,63.0,55.0,30.05,West,266,2.0,5.0,74,0.00,,,0.22,,2013-06-05 16:22:00,
2013-06-05 11:32:00,64.0,56.0,30.05,West,259,3.0,6.0,74,0.00,,,0.22,,2013-06-05 16:32:00,
2013-06-05 11:42:00,64.0,56.0,30.05,West,259,3.0,6.0,74,0.00,,,0.22,,2013-06-05 16:42:00,
2013-06-05 11:54:00,64.0,54.0,30.05,West,268,3.0,6.0,71,0.00,,,0.22,,2013-06-05 16:54:00,
2013-06-05 12:02:00,64.0,55.0,30.05,West,261,2.0,5.0,72,0.00,,,0.22,,2013-06-05 17:02:00,
2013-06-05 12:12:00,64.0,55.0,30.05,West,261,2.0,5.0,72,0.00,,,0.22,,2013-06-05 17:12:00,
2013-06-05 12:22:00,64.0,56.0,30.04,West,263,2.0,4.0,74,0.00,,,0.22,,2013-06-05 17:22:00,
2013-06-05 12:32:00,65.0,55.0,30.04,West,271,3.0,5.0,70,0.00,,,0.22,,2013-06-05 17:32:00,
2013-06-05 12:43:00,65.0,55.0,30.04,West,271,3.0,5.0,70,0.00,,,0.22,,2013-06-05 17:43:00,
2013-06-05 12:52:00,65.0,55.0,30.04,West,274,2.0,5.0,71,0.00,,,0.20,,2013-06-05 17:52:00,
2013-06-05 13:02:00,65.0,53.0,30.04,West,267,2.0,4.0,65,0.00,,,0.20,,2013-06-05 18:02:00,
2013-06-05 13:12:00,65.0,53.0,30.04,West,267,2.0,4.0,65,0.00,,,0.20,,2013-06-05 18:12:00,
2013-06-05 13:22:00,66.0,53.0,30.03,West,269,1.0,5.0,64,0.00,,,0.20,,2013-06-05 18:22:00,
2013-06-05 13:32:00,67.0,55.0,30.03,West,278,1.0,6.0,65,0.00,,,0.20,,2013-06-05 18:32:00,
2013-06-05 13:42:00,67.0,55.0,30.03,West,278,1.0,6.0,65,0.00,,,0.20,,2013-06-05 18:42:00,
2013-06-05 13:52:00,68.0,53.0,30.02,West,263,2.0,11.0,58,0.00,,,0.14,,2013-06-05 18:52:00,
2013-06-05 14:02:00,68.0,56.0,30.02,West,279,1.0,6.0,65,0.00,,,0.14,,2013-06-05 19:02:00,
2013-06-05 14:12:00,68.0,56.0,30.02,West,279,1.0,6.0,65,0.00,,,0.14,,2013-06-05 19:12:00,
2013-06-05 14:23:00,69.0,55.0,30.01,West,262,4.0,7.0,60,0.00,,,0.14,,2013-06-05 19:23:00,
2013-06-05 14:32:00,67.0,54.0,30.01,West,262,4.0,7.0,64,0.00,,,0.14,,2013-06-05 19:32:00,
2013-06-05 14:42:00,67.0,54.0,30.01,West,262,4.0,7.0,64,0.00,,,0.14,,2013-06-05 19:42:00,
2013-06-05 14:53:00,66.0,53.0,30.01,WSW,252,2.0,5.0,63,0.00,,,0.07,,2013-06-05 19:53:00,
2013-06-05 15:02:00,67.0,55.0,30.01,WSW,252,3.0,7.0,65,0.00,,,0.07,,2013-06-05 20:02:00,
2013-06-05 15:12:00,67.0,55.0,30.01,WSW,252,3.0,7.0,65,0.00,,,0.07,,2013-06-05 20:12:00,
2013-06-05 15:22:00,66.0,53.0,30.01,WSW,257,3.0,7.0,62,0.00,,,0.07,,2013-06-05 20:22:00,
2013-06-05 15:32:00,66.0,53.0,30.00,West,272,3.0,7.0,63,0.00,,,0.07,,2013-06-05 20:32:00,
2013-06-05 15:42:00,67.0,54.0,29.99,West,274,3.0,7.0,63,0.00,,,0.00,,2013-06-05 20:42:00,
2013-06-05 15:52:00,67.0,54.0,29.99,West,274,3.0,7.0,63,0.00,,,0.00,,2013-06-05 20:52:00,
2013-06-05 16:02:00,67.0,54.0,29.99,West,274,3.0,7.0,63,0.00,,,0.00,,2013-06-05 21:02:00,
2013-06-05 16:12:00,67.0,54.0,29.99,West,267,4.0,7.0,62,0.00,,,0.00,,2013-06-05 21:12:00,
2013-06-05 16:22:00,67.0,54.0,29.99,West,267,4.0,7.0,62,0.00,,,0.00,,2013-06-05 21:22:00,
2013-06-05 16:33:00,68.0,53.0,29.98,West,259,4.0,8.0,59,0.00,,,0.00,,2013-06-05 21:33:00,
2013-06-05 16:43:00,68.0,53.0,29.98,West,259,4.0,8.0,59,0.00,,,0.00,,2013-06-05 21:43:00,
2013-06-05 16:53:00,68.0,53.0,29.98,West,259,4.0,8.0,59,0.00,,,0.00,,2013-06-05 21:53:00,
2013-06-05 17:02:00,67.0,53.0,29.98,West,262,4.0,7.0,61,0.00,,,0.00,,2013-06-05 22:02:00,
2013-06-05 17:12:00,67.0,53.0,29.98,West,262,4.0,7.0,61,0.00,,,0.00,,2013-06-05 22:12:00,
2013-06-05 17:22:00,67.0,53.0,29.98,West,270,4.0,7.0,61,0.00,,,0.00,,2013-06-05 22:22:00,
2013-06-05 17:32:00,67.0,53.0,29.98,West,270,4.0,7.0,61,0.00,,,0.00,,2013-06-05 22:32:00,
2013-06-05 17:42:00,66.0,54.0,29.98,West,265,3.0,7.0,65,0.00,,,0.00,,2013-06-05 22:42:00,
2013-06-05 17:53:00,66.0,54.0,29.98,West,265,3.0,7.0,65,0.00,,,0.00,,2013-06-05 22:53:00,
2013-06-05 18:02:00,65.0,53.0,29.98,West,277,3.0,7.0,65,0.00,,,0.00,,2013-06-05 23:02:00,
2013-06-05 18:12:00,65.0,53.0,29.98,West,277,3.0,7.0,65,0.00,,,0.00,,2013-06-05 23:12:00,
2013-06-05 18:22:00,65.0,53.0,29.98,West,271,2.0,5.0,65,0.00,,,0.00,,2013-06-05 23:22:00,
2013-06-05 18:32:00,65.0,53.0,29.98,West,267,2.0,4.0,64,0.00,,,0.00,,2013-06-05 23:32:00,
2013-06-05 18:42:00,65.0,53.0,29.98,West,267,2.0,4.0,64,0.00,,,0.00,,2013-06-05 23:42:00,
2013-06-05 18:53:00,65.0,53.0,29.98,West,269,0.0,4.0,65,0.00,,,0.00,,2013-06-05 23:53:00,
2013-06-05 19:02:00,65.0,54.0,29.98,West,269,0.0,3.0,67,0.00,,,0.00,,2013-06-06 00:02:00,
2013-06-05 19:12:00,65.0,54.0,29.98,West,269,0.0,3.0,67,0.00,,,0.00,,2013-06-06 00:12:00,
2013-06-05 19:22:00,65.0,53.0,29.98,West,269,1.0,4.0,64,0.00,,,0.00,,2013-06-06 00:22:00,
2013-06-05 19:32:00,65.0,53.0,29.99,West,269,0.0,3.0,66,0.00,,,0.00,,2013-06-06 00:32:00,
2013-06-05 19:42:00,65.0,53.0,29.99,West,269,0.0,3.0,66,0.00,,,0.00,,2013-06-06 00:42:00,
2013-06-05 19:52:00,65.0,53.0,29.99,West,269,1.0,3.0,66,0.00,,,0.00,,2013-06-06 00:52:00,
2013-06-05 20:02:00,64.0,52.0,29.99,West,269,1.0,3.0,66,0.00,,,0.00,,2013-06-06 01:02:00,
2013-06-05 20:12:00,64.0,52.0,29.99,West,269,1.0,3.0,66,0.00,,,0.00,,2013-06-06 01:12:00,
2013-06-05 20:22:00,64.0,53.0,29.99,West,269,1.0,4.0,67,0.00,,,0.00,,2013-06-06 01:22:00,
2013-06-05 20:32:00,64.0,53.0,30.00,West,269,1.0,5.0,67,0.00,,,0.00,,2013-06-06 01:32:00,
2013-06-05 20:42:00,64.0,53.0,30.00,West,269,1.0,5.0,67,0.00,,,0.00,,2013-06-06 01:42:00,
2013-06-05 20:53:00,64.0,52.0,30.00,West,269,1.0,3.0,66,0.00,,,0.00,,2013-06-06 01:53:00,
2013-06-05 21:02:00,63.0,52.0,30.00,NW,310,0.0,5.0,68,0.00,,,0.00,,2013-06-06 02:02:00,
2013-06-05 21:12:00,63.0,52.0,30.00,NW,310,0.0,5.0,68,0.00,,,0.00,,2013-06-06 02:12:00,
2013-06-05 21:22:00,63.0,55.0,30.00,North,5,2.0,6.0,75,0.00,,,0.00,,2013-06-06 02:22:00,
2013-06-05 21:32:00,62.0,55.0,30.00,NNE,21,3.0,6.0,78,0.00,,,0.00,,2013-06-06 02:32:00,
2013-06-05 21:42:00,62.0,55.0,30.00,NNE,21,3.0,6.0,78,0.00,,,0.00,,2013-06-06 02:42:00,
2013-06-05 21:52:00,62.0,55.0,30.00,NNE,21,3.0,6.0,78,0.00,,,0.00,,2013-06-06 02:52:00,
2013-06-05 22:02:00,61.0,55.0,30.01,North,9,3.0,6.0,80,0.00,,,0.00,,2013-06-06 03:02:00,
2013-06-05 22:12:00,61.0,55.0,30.01,North,9,3.0,6.0,80,0.00,,,0.00,,2013-06-06 03:12:00,
2013-06-05 22:22:00,61.0,55.0,30.01,North,5,2.0,6.0,80,0.00,,,0.00,,2013-06-06 03:22:00,
2013-06-05 22:33:00,61.0,55.0,30.01,North,360,2.0,5.0,80,0.00,,,0.00,,2013-06-06 03:33:00,
2013-06-05 22:43:00,61.0,55.0,30.01,North,360,2.0,5.0,80,0.00,,,0.00,,2013-06-06 03:43:00,
2013-06-05 22:53:00,60.0,54.0,30.01,NNE,29,2.0,4.0,80,0.00,,,0.00,,2013-06-06 03:53:00,
2013-06-05 23:03:00,60.0,54.0,30.02,NNE,19,2.0,5.0,80,0.00,,,0.00,,2013-06-06 04:03:00,
2013-06-05 23:13:00,60.0,54.0,30.02,NNE,19,2.0,5.0,80,0.00,,,0.00,,2013-06-06 04:13:00,
2013-06-05 23:23:00,60.0,54.0,30.01,NNE,17,2.0,4.0,81,0.00,,,0.00,,2013-06-06 04:23:00,
2013-06-05 23:33:00,60.0,55.0,30.02,NNE,17,1.0,2.0,83,0.00,,,0.00,,2013-06-06 04:33:00,
2013-06-05 23:42:00,60.0,55.0,30.02,NNE,17,1.0,2.0,83,0.00,,,0.00,,2013-06-06 04:42:00,
2013-06-05 23:53:00,59.0,54.0,30.02,NNE,17,0.0,3.0,84,0.00,,,0.00,,2013-06-06 04:53:00,